Location: Unspecified
(0.0000°N, 0.0000°E)
Time: 03:39:21
(UTC+00:00)

TiPS - Visible Passes

Search period start: 14 October 2019 00:00
Search period end: 24 October 2019 00:00
Orbit: 736 x 1239 km, 63.4° (Epoch: 14 July)

Date Brightness Start Highest point End Pass type
(mag) Time Alt. Az. Time Alt. Az. Time Alt. Az.
14 Oct 8.3 05:17:27 10° N 05:24:39 56° ENE 05:32:10 10° SE visible
14 Oct 8.8 18:28:05 10° WSW 18:32:15 24° WNW 18:36:19 10° NNW visible
15 Oct 9.9 03:59:18 10° NE 04:02:55 14° ENE 04:06:35 10° E visible
16 Oct 9.0 04:22:34 10° N 04:29:02 33° ENE 04:35:47 10° SE visible
17 Oct 7.7 04:47:45 10° NNW 04:55:07 73° ENE 05:02:51 10° SSE visible
18 Oct 9.6 03:28:22 10° NNE 03:33:25 20° ENE 03:38:36 10° ESE visible
18 Oct 7.6 05:14:02 10° NW 05:21:15 53° WSW 05:28:46 10° S visible
19 Oct 8.4 03:52:35 10° N 03:59:31 44° ENE 04:06:46 10° SE visible
20 Oct 9.9 02:36:57 10° ENE 02:37:45 10° ENE 02:38:33 10° ENE visible
20 Oct 7.4 04:18:48 13° NNW 04:25:36 87° WSW 04:33:22 10° SSE visible
21 Oct 9.1 03:01:00 21° NE 03:03:54 26° ENE 03:10:04 10° ESE visible
21 Oct 7.9 04:45:47 14° NW 04:51:45 41° WSW 04:58:54 10° S visible
22 Oct 7.8 03:27:52 45° NNE 03:29:59 59° ENE 03:37:33 10° SE visible
22 Oct 8.8 05:13:10 10° WNW 05:18:01 18° WSW 05:22:55 10° SSW visible
23 Oct 9.7 02:09:49 14° E 02:09:49 14° E 02:12:15 10° E visible
23 Oct 7.3 03:54:35 55° WNW 03:56:05 67° WSW 04:03:47 10° SSE visible
